Back to catalog

STARLINK-34634

AliveCommunicationsVLEO
NORAD 65079·PAYLOAD·🇺🇸 United States

Launched Aug 4, 2025 from Cape Canaveral Space Force Station

Loading…

Next Passes (next 24 hours)

TLE

FreshSource: CelesTrak SupGP

Epoch: Sep 14, 2026, 20:42 UTC

1 65079C 25167B   26257.86298611  .00047101  00000+0  13915-2 0  2571
2 65079  53.1575 221.7274 0001487  96.8523 197.6750 15.34369970    16

Track STARLINK-34634 in real time with AllMySat

Download on the App Store